Torna al catalogo

CZ-6A DEB

AttivoPO
NORAD 60687·DEBRIS·🇨🇳 China

Lanciato Aug 6, 2024 da Taiyuan Satellite Launch Center

Loading…

Prossimi Passaggi (prossime 24 ore)

TLE

AggiornatoSource: Space-Track

Epoca: Sep 14, 2026, 11:23 UTC

1 60687U 24140CQ  26257.47485665  .00000702  00000-0  33158-3 0  9997
2 60687  89.0041 265.8257 0055838 275.3593  84.1227 14.17944555108513

Traccia CZ-6A DEB in tempo reale con AllMySat

Download on the App Store